Location: Unspecified
(38.9820°N, 94.4650°W)
Time: 07:27:10
(UTC-05:00)

CZ-3 Stage 3 - Visible Passes

Search period start: 02 October 2014 00:00
Search period end: 12 October 2014 00:00
Orbit: 411 x 34832 km, 30.8° (Epoch: 02 October)

Date Brightness Start Highest point End Pass type
(mag) Time Alt. Az. Time Alt. Az. Time Alt. Az.
03 Oct 6.6 00:00:35 10° S 08:06:37 64° S 08:17:31 10° E visible
03 Oct 8.3 22:26:38 10° SE 03:58:37 47° SE 04:39:53 10° E visible
05 Oct 6.5 23:55:29 10° S 08:03:54 65° S 08:14:29 10° E visible
06 Oct 8.2 22:11:42 10° SE 03:56:45 48° SSE 04:37:06 10° E visible
07 Oct 9.0 23:16:33 10° ESE 23:52:49 12° ESE 00:18:57 10° E visible
08 Oct 6.4 23:50:24 10° S 08:00:58 66° S 08:11:16 10° E visible
09 Oct 8.2 21:56:58 10° SE 03:54:40 50° SSE 04:34:07 10° E visible
10 Oct 8.9 22:51:19 10° ESE 23:49:15 14° ESE 00:25:01 10° E visible
11 Oct 9.4 23:45:16 10° S 00:00:00 12° S 00:00:00 12° S visible
